Location: Newark
(40.2370°N, 1.4081°W)
Time: 23:25:24
(UTC+00:00)

N. Korean satellite - Pass Details

Date: 31 October 2019
Orbit: 456 x 506 km, 97.2° (Epoch: 17 November)

Event Time Altitude Azimuth Distance (km) Brightness Sun altitude
Rises 04:50:53 0° 36° (NE) 2,600 10.7 -20.1°
Reaches altitude 10° 04:54:17 10° 70° (ENE) 1,717 10.4 -19.4°
Maximum altitude 04:55:36 12° 91° (E) 1,619 10.4 -19.2°
Drops below altitude 10° 04:56:55 10° 112° (ESE) 1,715 10.4 -18.9°
Sets 05:00:18 0° 146° (SSE) 2,595 10.8 -18.3°
